This is the latest recevied weather packets stored in our database for station/object VU2EXP-13. If no packets are shown the sender has not sent any weather packets the latest 10 day(s).
| Time | Temp. | Humidity | Pressure | Rain* | Wind** | Luminosity | Snow |
|---|---|---|---|---|---|---|---|
| 1787910414 | 35.56° C | 44% | 983.3 hPa | - | - | - | - |
| 1787909748 | 36.11° C | 43% | 989 hPa | - | - | - | - |
| 1787908848 | 35.56° C | 43% | 989.1 hPa | - | - | - | - |
| 1787907947 | 34.44° C | 45% | 989.2 hPa | - | - | - | - |
| 1787907048 | 36.67° C | 43% | 989.4 hPa | - | - | - | - |
| 1787906147 | 36.11° C | 43% | 989.5 hPa | - | - | - | - |
| 1787905248 | 35° C | 45% | 989.8 hPa | - | - | - | - |
| 1787904348 | 33.89° C | 47% | 990 hPa | - | - | - | - |
| 1787903448 | 35° C | 46% | 990.2 hPa | - | - | - | - |
| 1787902548 | 33.33° C | 49% | 990.5 hPa | - | - | - | - |
| 1787901647 | 34.44° C | 46% | 990.5 hPa | - | - | - | - |
| 1787900747 | 33.89° C | 48% | 990.7 hPa | - | - | - | - |
| 1787899847 | 33.33° C | 50% | 991 hPa | - | - | - | - |
| 1787898947 | 32.78° C | 51% | 991.3 hPa | - | - | - | - |
| 1787898047 | 32.78° C | 52% | 991.4 hPa | - | - | - | - |
| 1787897146 | 32.22° C | 51% | 991.4 hPa | - | - | - | - |
| 1787896246 | 32.22° C | 53% | 991.4 hPa | - | - | - | - |
| 1787895348 | 31.67° C | 56% | 991.6 hPa | - | - | - | - |
| 1787894446 | 31.11° C | 57% | 991.7 hPa | - | - | - | - |
| 1787893546 | 31.11° C | 57% | 991.8 hPa | - | - | - | - |
| 1787892646 | 31.11° C | 57% | 991.7 hPa | - | - | - | - |
| 1787891746 | 30.56° C | 58% | 991.7 hPa | - | - | - | - |
| 1787890846 | 30.56° C | 59% | 991.7 hPa | - | - | - | - |
| 1787889945 | 31.11° C | 58% | 991.7 hPa | - | - | - | - |
| 1787889045 | 30° C | 60% | 991.7 hPa | - | - | - | - |
* Rain since midnight (hover to see other rain measurements)
** Current wind speed in m/s (hover to see current wind gust speed)